Flag for U.S.A. Weather past 2 weeks in Jefferson City, Missouri, U.S.A.

Now
66 °F

Sunny.


Feels Like: 66 °F
Forecast: 41 / 67 °F
Wind: No wind

Location: Jefferson City Memorial Airport


UV Index: 5 (Moderate)

Visibility: 10 mi


Pressure: 30.27 "Hg

Humidity: 40%

Dew point: 41 °F

Location of Jefferson CityLocation

Historic Weather in Jefferson City

°F

Jefferson City temperature yesterday

Maximum temperature yesterday: 57 °F (at 2:53 PM)
Minimum temperature yesterday: 45 °F (at 6:53 AM)
Average temperature yesterday: 50 °F

Past Weeks' High & Low Weather Summary

 TemperatureHumidityPressure
High83 °F (Apr 12, 2:53 PM)97% (Apr 14, 12:53 AM)30.30 "Hg (Apr 14, 12:53 AM)
Low28 °F (Apr 15, 6:53 AM)20% (Apr 9, 1:53 PM)29.48 "Hg (Apr 13, 4:53 PM)
Average53 °F57%29.94 "Hg
* Reported Apr 3 11:53 AM — Apr 18 11:53 AM, Jefferson City, Weather by CustomWeather, © 2014

Note: Actual official high and low records may vary slightly from our data, if they occured in-between our weather recording intervals... More about our weather records

Advertising

Historic Weather Conditions — Data for Previous 24 hours

 ConditionsComfort  
Time TempWeatherWind HumidityBarometerVisibility
11:53 AM
Apr 18
60 °FSunny.5 mph49%30.29 "Hg10 mi
10:53 AM56 °FSunny.7 mph55%30.30 "Hg10 mi
9:53 AM53 °FSunny.7 mph59%30.30 "Hg10 mi
8:53 AM48 °FSunny.No wind77%30.30 "Hg8 mi
7:53 AM43 °FFog.No wind89%30.29 "Hg5 mi
6:53 AM40 °FFog.6 mph89%30.29 "Hg5 mi
5:53 AM42 °FClear.No wind85%30.27 "Hg7 mi
4:53 AM44 °FClear.6 mph82%30.26 "Hg9 mi
3:53 AM45 °FPassing clouds.5 mph80%30.26 "Hg10 mi
2:53 AM45 °FOvercast.3 mph82%30.26 "Hg10 mi
1:53 AM46 °FPassing clouds.No wind79%30.26 "Hg10 mi
12:53 AM48 °FOvercast.No wind74%30.25 "Hg10 mi
11:53 PM
Apr 17
49 °FOvercast.5 mph71%30.26 "Hg10 mi
10:53 PM49 °FOvercast.No wind69%30.26 "Hg10 mi
9:53 PM49 °FOvercast.5 mph66%30.26 "Hg10 mi
8:53 PM50 °FPassing clouds.5 mph63%30.25 "Hg10 mi
7:53 PM52 °FPartly sunny.8 mph59%30.24 "Hg10 mi
6:53 PM54 °FSunny.9 mph55%30.23 "Hg10 mi
5:53 PM55 °FSunny.12 mph53%30.23 "Hg10 mi
4:53 PM55 °FSunny.14 mph55%30.23 "Hg10 mi
3:53 PM57 °FSunny.7 mph49%30.21 "Hg10 mi
2:53 PM57 °FSunny.5 mph49%30.22 "Hg10 mi
1:53 PM56 °FSunny.6 mph49%30.22 "Hg10 mi
Weather by CustomWeather, © 2014

See weather overview